Le nostre stazioni meteo in Italia

Pubblicità
Il mio iltempo24.it
Dalwhinnie, Gran Bretagna (99005): Temperatura & dewpoint: 14.02.2017 15:00:00 - 20.02.2017 15:00:00 (GMT)Dalwhinnie, Gran Bretagna (99005): precipitazioni: 14.02.2017 15:00:00 - 20.02.2017 15:00:00 (GMT)
Data & Tempo tt [°C] td [°C] rr [mm]
20.02.2017 15:00:00 7,5 3,0 0,0
20.02.2017 14:00:00 7,5 4,7 0,0
20.02.2017 13:00:00 8,8 4,4 0,0
20.02.2017 12:00:00 8,8 5,6 0,0
20.02.2017 11:00:00 9,2 6,8 0,0
20.02.2017 10:00:00 9,4 7,6 0,2
20.02.2017 09:00:00 9,7 7,9 0,2
20.02.2017 08:00:00 9,7 7,9 0,8
20.02.2017 07:00:00 10,2 8,2 0,2
20.02.2017 06:00:00 11,0 8,9 0,2
20.02.2017 05:00:00 10,4 8,9 0,0
20.02.2017 04:00:00 7,5 6,7 0,0
20.02.2017 03:00:00 8,7 6,6 0,0
20.02.2017 02:00:00 8,7 6,6 0,0
20.02.2017 01:00:00 8,8 6,9 0,0
20.02.2017 00:00:00 9,3 7,2 0,0
19.02.2017 23:00:00 9,6 7,5 0,0
19.02.2017 22:00:00 9,2 7,7 0,0
19.02.2017 21:00:00 8,9 7,6 0,0
19.02.2017 20:00:00 8,3 7,4 0,0
19.02.2017 19:00:00 7,9 6,7 0,0
19.02.2017 18:00:00 8,5 7,1 0,0
19.02.2017 17:00:00 8,4 6,8 0,0
19.02.2017 16:00:00 9,2 6,2 0,0
19.02.2017 15:00:00 9,0 5,8 0,0
19.02.2017 14:00:00 9,6 5,7 0,0
19.02.2017 13:00:00 9,5 5,4 0,0
19.02.2017 12:00:00 9,3 5,3 0,0
19.02.2017 11:00:00 8,3 5,3 0,0
19.02.2017 10:00:00 7,6 5,2 0,0
19.02.2017 09:00:00 6,9 4,1 0,0
19.02.2017 08:00:00 6,2 3,8 0,0
19.02.2017 07:00:00 6,2 3,5 0,0
19.02.2017 06:00:00 6,4 3,2 0,0
19.02.2017 05:00:00 6,2 3,5 0,0
19.02.2017 04:00:00 6,2 3,7 0,0
19.02.2017 03:00:00 6,5 3,6 0,0
19.02.2017 02:00:00 7,0 3,8 0,0
19.02.2017 01:00:00 6,9 4,9 0,2
19.02.2017 00:00:00 6,8 5,0 0,0
18.02.2017 23:00:00 6,4 3,7 0,0
18.02.2017 22:00:00 6,4 3,3 0,0
18.02.2017 21:00:00 6,5 3,8 0,0
18.02.2017 20:00:00 5,9 3,8 0,2
18.02.2017 19:00:00 6,7 4,1 0,2
18.02.2017 18:00:00 7,2 4,4 0,0
18.02.2017 17:00:00 7,1 4,9 0,0
18.02.2017 16:00:00 7,8 4,9 0,0
18.02.2017 15:00:00 7,6 4,5 0,0
18.02.2017 14:00:00 8,5 5,7 0,2
18.02.2017 13:00:00 8,3 6,6 0,0
18.02.2017 12:00:00 8,0 6,7 0,0
18.02.2017 11:00:00 8,6 6,7 0,0
18.02.2017 10:00:00 7,7 7,1 0,0
18.02.2017 09:00:00 7,3 6,6 0,2
18.02.2017 08:00:00 7,4 6,6 0,0
18.02.2017 07:00:00 6,8 6,3 0,0
18.02.2017 06:00:00 7,5 6,3 0,0
18.02.2017 05:00:00 7,3 6,3 0,2
18.02.2017 04:00:00 7,2 6,1 0,0
18.02.2017 03:00:00 7,4 5,8 0,0
18.02.2017 02:00:00 7,3 5,7 0,0
18.02.2017 01:00:00 7,3 5,6 0,0
18.02.2017 00:00:00 6,9 5,8 0,0
17.02.2017 23:00:00 7,3 5,4 0,0
17.02.2017 22:00:00 7,1 5,4 0,0
17.02.2017 21:00:00 7,0 5,2 0,0
17.02.2017 20:00:00 6,8 5,0 0,0
17.02.2017 19:00:00 6,6 4,0 0,0
17.02.2017 18:00:00 6,4 3,8 0,0
17.02.2017 17:00:00 6,6 4,5 0,0
17.02.2017 16:00:00 6,9 4,7 0,0
17.02.2017 15:00:00 7,0 4,4 0,0
17.02.2017 14:00:00 7,3 4,0 0,0
17.02.2017 13:00:00 7,0 3,4 0,0
17.02.2017 12:00:00 7,0 4,1 0,0
17.02.2017 11:00:00 5,6 3,2 0,0
17.02.2017 10:00:00 4,4 4,1 0,0
17.02.2017 09:00:00 0,1 0,0 0,0
17.02.2017 08:00:00 -0,3 -0,4 0,0
17.02.2017 07:00:00 -0,3 -0,5 0,0
17.02.2017 06:00:00 1,2 1,1 0,0
17.02.2017 05:00:00 -1,6 -2,0 0,0
17.02.2017 04:00:00 -1,1 -1,6 0,0
17.02.2017 03:00:00 -1,0 -1,5 0,0
17.02.2017 02:00:00 0,8 0,3 0,0
17.02.2017 01:00:00 1,5 0,7 0,0
17.02.2017 00:00:00 2,0 1,2 0,0
16.02.2017 23:00:00 2,9 1,8 0,0
16.02.2017 22:00:00 1,8 1,1 0,0
16.02.2017 21:00:00 2,3 1,2 0,0
16.02.2017 20:00:00 3,1 1,8 0,0
16.02.2017 19:00:00 4,4 1,6 0,0
16.02.2017 18:00:00 6,0 2,6 0,0
16.02.2017 17:00:00 6,7 3,1 0,0
16.02.2017 16:00:00 7,5 2,9 0,0
16.02.2017 15:00:00 7,8 4,1 0,2
16.02.2017 14:00:00 6,9 5,3 2,0
16.02.2017 13:00:00 7,3 4,9 0,2
16.02.2017 12:00:00 7,0 4,9 0,0
16.02.2017 11:00:00 6,5 4,7 1,2
16.02.2017 10:00:00 5,2 3,8 0,2
16.02.2017 09:00:00 5,1 3,6 1,4
16.02.2017 08:00:00 5,4 3,9 0,4
16.02.2017 07:00:00 5,5 3,8 1,4
16.02.2017 06:00:00 5,7 4,3 0,8
16.02.2017 05:00:00 6,1 5,0 1,2
16.02.2017 04:00:00 5,6 4,8 1,6
16.02.2017 03:00:00 5,8 5,3 0,6
16.02.2017 02:00:00 5,7 5,2 1,8
16.02.2017 01:00:00 5,8 5,1 0,6
16.02.2017 00:00:00 5,7 4,8 0,6
15.02.2017 23:00:00 5,6 4,6 0,0
15.02.2017 22:00:00 5,9 4,5 0,0
15.02.2017 21:00:00 5,8 4,3 0,2
15.02.2017 20:00:00 5,8 4,2 0,0
15.02.2017 19:00:00 5,6 4,1 0,0
15.02.2017 18:00:00 5,2 4,0 0,0
15.02.2017 17:00:00 5,8 3,8 0,0
15.02.2017 16:00:00 5,7 3,4 0,0
15.02.2017 15:00:00 5,6 3,0 0,0
15.02.2017 14:00:00 7,1 3,4 0,0
15.02.2017 13:00:00 6,8 2,3 0,0
15.02.2017 12:00:00 5,7 2,6 0,0
15.02.2017 11:00:00 5,5 2,5 0,0
15.02.2017 10:00:00 5,1 2,4 0,0
15.02.2017 09:00:00 4,8 2,6 0,0
15.02.2017 08:00:00 4,2 2,8 0,0
15.02.2017 07:00:00 3,6 2,1 0,0
15.02.2017 06:00:00 4,1 2,5 0,0
15.02.2017 05:00:00 4,0 2,2 0,0
15.02.2017 04:00:00 3,6 2,2 0,2
15.02.2017 03:00:00 3,5 2,0 0,0
15.02.2017 02:00:00 3,9 2,2 0,0
15.02.2017 01:00:00 3,6 1,6 0,0
15.02.2017 00:00:00 3,7 1,1 0,0
14.02.2017 23:00:00 3,2 1,1 0,0
14.02.2017 22:00:00 3,1 0,8 0,0
14.02.2017 21:00:00 3,1 0,5 0,0
14.02.2017 20:00:00 3,0 0,8 0,0
14.02.2017 19:00:00 3,1 0,3 0,0
14.02.2017 18:00:00 3,3 0,4 0,0
14.02.2017 17:00:00 3,7 0,5 0,0
14.02.2017 16:00:00 3,6 0,6 0,0
14.02.2017 15:00:00 4,4 0,8 0,0

tt = Temperatura
td = dewpoint
rr = precipitazioni

Stazioni seguenti

WeatherPro
AMSI
MeteoEarth